Change the Weather History Date:

Friday, October 3, 2014

  Actual Average Record
Temperature  
Mean Temperature 69 °F 70 °F  
Max Temperature 84 °F 83 °F 94 °F (2000)
Min Temperature 53 °F 57 °F 43 °F (1961)
Degree Days  
Heating Degree Days 0 1  
Month to date heating degree days 0 2  
Since 1 July heating degree days 0 6  
Cooling Degree Days 4 5  
Month to date cooling degree days 19 17  
Year to date cooling degree days 2554 2263  
Growing Degree Days 18 (Base 50)    
Moisture  
Dew Point 28 °F    
Average Humidity 28    
Maximum Humidity 46    
Minimum Humidity 10    
Precipitation  
Precipitation 0.00 in 0.03 in 1.66 in (1883)
Month to date precipitation 0.00 0.08  
Year to date precipitation 7.36 7.91  
Snow  
Snow 0.00 in - - ()
Month to date snowfall 0.0  
Since 1 July snowfall 0.0  
Since 1 September snowfall 0.0  
Snow Depth 0.00 in    
Sea Level Pressure  
Sea Level Pressure 30.05 in    
Wind  
Wind Speed 6 mph (NNE)    
Max Wind Speed 16 mph    
Max Gust Speed 19 mph    
Visibility 10 miles    
Events      
T = Trace of Precipitation, MM = Missing Value Source: NWS Daily Summary

Daily Weather History Graph

Daily Weather History Graph

Search for Another Location

Airport or City:

Trip Planner

Search our weather history database for the weather conditions in past years. The results will help you decide how hot, cold, wet, or windy it might be!

Date:

Astronomy

Oct. 03, 2014 Rise Set
Actual Time 7:00 AM MDT 6:47 PM MDT
Civil Twilight 6:36 AM MDT 7:12 PM MDT
Nautical Twilight 6:08 AM MDT 7:40 PM MDT
Astronomical Twilight 5:39 AM MDT 8:08 PM MDT
Moon 3:27 PM MDT (10/3) 1:42 AM MDT (10/3)
Length of Visible Light 12h 35m
Length of Day
11h 47m
Waxing Gibbous, 71% of the Moon is Illuminated
Oct 3
Waxing Gibbous
Oct 8
Full
Oct 15
Last Quarter
Oct 23
New
Oct 30
First Quarter

Hourly Weather History & Observations

Time (MDT) Temp. Dew Point Humidity Pressure Visibility Wind Dir Wind Speed Gust Speed Precip Events Conditions
12:51 AM 64.0 °F 27.0 °F 25% 29.99 in 10.0 mi North 3.5 mph - N/A   Clear
1:51 AM 57.9 °F 30.9 °F 36% 30.00 in 10.0 mi East 5.8 mph - N/A   Clear
2:51 AM 54.0 °F 33.1 °F 45% 30.01 in 10.0 mi East 6.9 mph - N/A   Clear
3:51 AM 57.9 °F 30.0 °F 35% 30.00 in 10.0 mi Calm Calm - N/A   Clear
4:51 AM 55.9 °F 30.9 °F 39% 30.01 in 10.0 mi North 3.5 mph - N/A   Clear
5:51 AM 55.0 °F 32.0 °F 42% 30.04 in 10.0 mi NNE 9.2 mph - N/A   Clear
6:51 AM 54.0 °F 30.0 °F 40% 30.07 in 10.0 mi NNE 6.9 mph - N/A   Clear
7:51 AM 57.9 °F 28.9 °F 33% 30.10 in 10.0 mi NNE 5.8 mph - N/A   Clear
8:51 AM 61.0 °F 28.0 °F 29% 30.12 in 10.0 mi NE 9.2 mph - N/A   Clear
9:51 AM 68.0 °F 28.0 °F 22% 30.12 in 10.0 mi North 10.4 mph - N/A   Clear
10:51 AM 72.0 °F 24.1 °F 17% 30.11 in 10.0 mi North 15.0 mph - N/A   Clear
11:51 AM 77.0 °F 25.0 °F 15% 30.10 in 10.0 mi NNE 9.2 mph - N/A   Clear
12:51 PM 79.0 °F 25.0 °F 14% 30.08 in 10.0 mi NNE 6.9 mph - N/A   Clear
1:51 PM 80.1 °F 24.1 °F 13% 30.06 in 10.0 mi WNW 4.6 mph - N/A   Clear
2:51 PM 81.0 °F 25.0 °F 13% 30.04 in 10.0 mi West 3.5 mph - N/A   Clear
3:51 PM 82.9 °F 23.0 °F 11% 30.02 in 10.0 mi Calm Calm - N/A   Clear
4:51 PM 82.9 °F 21.0 °F 10% 30.01 in 10.0 mi Variable 3.5 mph - N/A   Partly Cloudy
5:51 PM 82.0 °F 23.0 °F 11% 30.01 in 10.0 mi NNE 8.1 mph - N/A   Partly Cloudy
6:51 PM 78.1 °F 23.0 °F 13% 30.03 in 10.0 mi NNE 6.9 mph - N/A   Partly Cloudy
7:51 PM 73.0 °F 27.0 °F 18% 30.04 in 10.0 mi Calm Calm - N/A   Clear
8:51 PM 73.4 °F 28.4 °F 19% 30.20 in 10.0 mi Calm Calm - N/A   Clear
9:51 PM 64.9 °F 33.1 °F 31% 30.06 in 10.0 mi NE 5.8 mph - N/A   Clear
10:51 PM 64.9 °F 32.0 °F 29% 30.05 in 10.0 mi ENE 6.9 mph - N/A   Clear
11:51 PM 64.0 °F 37.0 °F 37% 30.04 in 10.0 mi Calm Calm - N/A   Clear